Regional Weather Roundup
Issued by NWS

Home | Current Version | Previous Version | Text Only | Print | Product List | Glossary Off
Versions: 1 2 3 4 5 6 7 8 9 10 11 12 13 14 15 16 17 18 19 20 21 22 23 24 25 26 27 28 29 30 31 32 33 34 35 36 37 38 39 40 41 42 43 44 45 46 47 48 49 50

613
ASUS44 KJAN 151510
RWRMS

MISSISSIPPI HOURLY WEATHER ROUNDUP
NATIONAL WEATHER SERVICE JACKSON MS
1000 AM CDT MON SEP 15 2014

NOTE: "FAIR: INDICATES FEW OR NO CLOUDS BELOW 12,000 FEET WITH NO
SIGNIFICANT WEATHER AND/OR OBSTRUCTIONS TO VISIBILITY.

MSZ001>002-007>008-010>013-018>021-025>028-034>036-151600-
NORTHWEST MISSISSIPPI

CITY           SKY/WX    TMP DP  RH WIND       PRES   REMARKS
CLARKSDALE     FAIR      73  64  73 CALM      30.19R
CLEVELAND      FAIR      74  66  77 CALM      30.18R
GREENWOOD      MOSUNNY   80  65  59 CALM      30.16S
GREENVILLE     CLOUDY    75  62  64 CALM      30.17R
GRENADA        FAIR      77  63  61 CALM      30.17S
OLIVE BRANCH   PTSUNNY   72  66  83 CALM      30.19R
OXFORD         FAIR      72  63  73 CALM      30.20R
TUNICA         CLOUDY    70  63  78 CALM      30.19S
$$

MSZ003>006-009-014>017-022>024-029>033-037>039-151600-
NORTHEAST MISSISSIPPI

CITY           SKY/WX    TMP DP  RH WIND       PRES   REMARKS
COLUMBUS AFB   MOSUNNY   78  68  72 VRB1      30.15S
CORINTH        FAIR      73  63  68 VRB3      30.17S
GOLDN TRIANGLE MOSUNNY   79  66  65 CALM      30.16R
STARKVILLE     FAIR      77  66  69 CALM      30.16R
TUPELO         SUNNY     76  64  66 CALM      30.17R
$$

MSZ040-058-151600-
CENTRAL MISSISSIPPI

CITY           SKY/WX    TMP DP  RH WIND       PRES   REMARKS
JACKSON INTL   MOSUNNY   83  68  60 CALM      30.14S
JACKSON HAWKNS MOSUNNY   82  67  60 CALM      30.15R
MERIDIAN KEY   SUNNY     81  68  64 CALM      30.14S
MERIDIAN NAS   MOSUNNY   80  70  71 CALM      30.15S
RAYMOND        FAIR      82  75  78 CALM      30.15R
VICKSBURG      CLOUDY    80  68  66 NE3       30.15S
$$

MSZ059>079-151600-
SOUTH MISSISSIPPI

CITY           SKY/WX    TMP DP  RH WIND       PRES   REMARKS
BROOKHAVEN     FAIR      81  73  78 CALM      30.16R
HATTIESBURG    SUNNY     83  73  72 VRB3      30.13R
MCCOMB         SUNNY     83  72  69 NE3       30.13S
NATCHEZ        SUNNY     79  72  78 NE3       30.14S
PINE BELT      SUNNY    N/A N/A N/A CALM      30.14S
$$

MSZ080>082-151600-
COASTAL MISSISSIPPI

CITY           SKY/WX    TMP DP  RH WIND       PRES   REMARKS
BAY ST LOUIS   MOSUNNY   86  72  62 NE7       30.10F HX  92
BILOXI         MOSUNNY   87  76  67 E8        30.10S HX  97
PASCAGOULA     MOSUNNY   86  76  71 E5        30.11R HX  96
GULFPORT       MOSUNNY   87  75  67 E9        30.10S HX  96
$$



USA.gov is the U.S. government's official web portal to all federal, state and local government web resources and services.